Location: Asheville, NC
(35.6000°N, 82.5500°W)
Time: 05:12:57
(UTC-05:00)

CUTE 1.7 + AOD 2 - Pass Details

Date: 11 February 2018
Orbit: 594 x 614 km, 97.6° (Epoch: 17 February)

Event Time Altitude Azimuth Distance (km) Brightness Sun altitude
Rises 06:08:20 0° 39° (NE) 2,836 ? -15.3°
Reaches altitude 10° 06:12:14 10° 76° (ENE) 1,931 ? -14.5°
Maximum altitude 06:13:21 11° 92° (E) 1,869 ? -14.3°
Drops below altitude 10° 06:14:30 10° 107° (ESE) 1,930 ? -14.1°
Sets 06:18:22 0° 144° (SE) 2,830 ? -13.3°
